Location: Tafessasset
(32.5899°N, 5.4824°W)
Time: 13:54:16
(UTC+00:00)

STARLINK-1045 - Pass Details

Date: 18 February 2020
Orbit: 549 x 550 km, 53.0° (Epoch: 05 April)

Event Time Altitude Azimuth Distance (km) Brightness Sun altitude
Exits shadow 04:11:28 12° 71° (ENE) 1,711 6.8 -36.6°
Drops below altitude 10° 04:11:53 10° 75° (ENE) 1,812 7.0 -36.5°
Enters shadow 05:15:27 -59° 310° (NW) 11,601 10.3 -23.2°
Maximum altitude 05:48:58 64° 230° (SW) 607 3.6 -16.1°
